Exeter, United Kingdom

6:15 PM BST on August 27, 2016 (GMT +0100)
Exeter

Weather History for EGTE - December, 2013

Change the Weather History Date:

Sunday, December 8, 2013

  Actual Average Record
Temperature  
Mean Temperature 44 °F -  
Max Temperature 53 °F 46 °F 57 °F (2011)
Min Temperature 34 °F 36 °F 26 °F (2010)
Degree Days  
Heating Degree Days 22    
Moisture  
Dew Point 43 °F    
Average Humidity 90    
Maximum Humidity 100    
Minimum Humidity 76    
Precipitation  
Precipitation 0.00 in - - ()
Sea Level Pressure  
Sea Level Pressure 30.31 in    
Wind  
Wind Speed 5 mph ()    
Max Wind Speed 13 mph    
Max Gust Speed -    
Visibility 6.2 miles    
Events      
Averages and records for this station are not official NWS values.
T = Trace of Precipitation, MM = Missing Value Source: Averaged Metar Reports

Daily Weather History Graph

Daily Weather History Graph

Search for Another Location

Airport or City:

Trip Planner

Search our weather history database for the weather conditions in past years. The results will help you decide how hot, cold, wet, or windy it might be!

Date:

Astronomy

Dec. 08, 2013 Rise Set
Actual Time 8:02 AM GMT 4:08 PM GMT
Civil Twilight 7:23 AM GMT 4:47 PM GMT
Nautical Twilight 6:41 AM GMT 5:29 PM GMT
Astronomical Twilight 6:01 AM GMT 6:09 PM GMT
Moon 11:45 AM GMT (12/8) 11:14 PM GMT (12/8)
Length of Visible Light 9h 24m
Length of Day
8h 06m
Waxing Crescent, 37% of the Moon is Illuminated
Dec 8
Waxing Crescent
Dec 9
First Quarter
Dec 17
Full
Dec 25
Last Quarter
Jan 1
New

Hourly Weather History & Observations

Time (GMT) Temp. Windchill Dew Point Humidity Pressure Visibility Wind Dir Wind Speed Gust Speed Precip Events Conditions
12:00 AM 39 °F - 38 °F 95%  in - Calm Calm - -  
3:00 AM 35 °F - 34 °F 94%  in - Calm Calm - -  
6:00 AM 35 °F - 34 °F 94%  in - Calm Calm - -  
8:20 AM 41.0 °F 35.8 °F 41.0 °F 100% 30.30 in 6.2 mi SSW 8.1 mph - N/A   Scattered Clouds
8:50 AM 39.2 °F - 37.4 °F 93% 30.30 in 6.2 mi Variable 2.3 mph - N/A   Scattered Clouds
9:00 AM 42 °F - 42 °F 98%  in - Calm Calm - -  
9:20 AM 42.8 °F 41.1 °F 42.8 °F 100% 30.30 in 6.2 mi East 3.5 mph - N/A   Scattered Clouds
9:50 AM 42.8 °F - 42.8 °F 100% 30.30 in 6.2 mi Variable 2.3 mph - N/A   Scattered Clouds
10:20 AM 44.6 °F 43.1 °F 44.6 °F 100% 30.30 in 6.2 mi North 3.5 mph - N/A   Scattered Clouds
10:50 AM 46.4 °F 44.3 °F 46.4 °F 100% 30.33 in 6.2 mi SSW 4.6 mph - N/A   Scattered Clouds
11:20 AM 50.0 °F - 46.4 °F 87% 30.33 in 6.2 mi West 10.4 mph - N/A   Partly Cloudy
11:50 AM 51.8 °F - 46.4 °F 82% 30.30 in 6.2 mi WSW 12.7 mph - N/A   Scattered Clouds
12:00 PM 51 °F - 46 °F 76%  in - Calm Calm - -  
12:20 PM 51.8 °F - 46.4 °F 82% 30.30 in 6.2 mi WSW 8.1 mph - N/A   Scattered Clouds
12:50 PM 51.8 °F - 46.4 °F 82% 30.30 in 6.2 mi WSW 6.9 mph - N/A   Scattered Clouds
1:20 PM 51.8 °F - 46.4 °F 82% 30.30 in 6.2 mi WSW 9.2 mph - N/A   Scattered Clouds
1:50 PM 51.8 °F - 46.4 °F 82% 30.27 in 6.2 mi SW 8.1 mph - N/A   Scattered Clouds
2:20 PM 51.8 °F - 44.6 °F 76% 30.27 in 6.2 mi WSW 6.9 mph - N/A   Partly Cloudy
3:00 PM 52 °F - 47 °F 76%  in - Calm Calm - -  
3:50 PM 51.8 °F - 44.6 °F 76% 30.30 in 6.2 mi SSW 4.6 mph - N/A   Partly Cloudy
4:50 PM 50.0 °F - 44.6 °F 82% 30.30 in 6.2 mi South 5.8 mph - N/A   Unknown
5:20 PM 48.2 °F - 44.6 °F 87% 30.30 in 6.2 mi South 5.8 mph - N/A   Unknown
5:50 PM 44.6 °F 42.2 °F 42.8 °F 93% 30.30 in 6.2 mi SW 4.6 mph - N/A   Unknown
6:00 PM 43 °F - 41 °F 91%  in - Calm Calm - -  
6:50 PM 44.6 °F 42.2 °F 42.8 °F 93% 30.30 in - SW 4.6 mph - N/A   Clear
7:20 PM 44.6 °F 42.2 °F 42.8 °F 93% 30.33 in - South 4.6 mph - N/A   Clear
7:50 PM 42.8 °F 39.3 °F 41.0 °F 93% 30.33 in - South 5.8 mph - N/A   Clear
8:50 PM 41.0 °F - 41.0 °F 100% 30.33 in - Variable 1.2 mph - N/A   Clear
9:00 PM 38 °F - 37 °F 95%  in - Calm Calm - -  
9:20 PM 41.0 °F - 41.0 °F 100% 30.33 in - Variable 1.2 mph - N/A   Clear